, FL

(GMT )
Bonifay

Weather History for K1J0 - August, 2019

Change the Weather History Date:

Saturday, August 17, 2019

  Actual Average Record
Temperature  
Mean Temperature 88 °F -  
Max Temperature 98 °F - - ()
Min Temperature 77 °F - - ()
Cooling Degree Days 22    
Growing Degree Days 38 (Base 50)    
Moisture  
Dew Point 74 °F    
Average Humidity 71    
Maximum Humidity 94    
Minimum Humidity 40    
Precipitation  
Precipitation 0.00 in - - ()
Sea Level Pressure  
Sea Level Pressure 29.85 in    
Wind  
Wind Speed 2 mph (South)    
Max Wind Speed 12 mph    
Max Gust Speed -    
Visibility 9 miles    
Events      
T = Trace of Precipitation, MM = Missing Value Source: NWS Daily Summary

Daily Weather History Graph

Daily Weather History Graph

Search for Another Location

Airport or City:

Astronomy

Aug. 17, 2019 Rise Set
Actual Time 7:09 AM EDT 8:22 PM EDT
Civil Twilight 6:44 AM EDT 8:48 PM EDT
Nautical Twilight 6:14 AM EDT 9:18 PM EDT
Astronomical Twilight 5:43 AM EDT 9:49 PM EDT
Moon 9:56 PM EDT (8/17) 8:53 AM EDT (8/17)
Length of Visible Light 14h 03m
Length of Day
13h 13m
Waning Gibbous, 96% of the Moon is Illuminated
Aug 17
Waning Gibbous
Aug 23
Last Quarter
Aug 30
New
Sep 5
First Quarter
Sep 14
Full

Hourly Weather History & Observations

Time (EDT) Temp. Heat Index Dew Point Humidity Pressure Visibility Wind Dir Wind Speed Gust Speed Precip Events Conditions
12:58 AM 80.1 °F 86.4 °F 78.1 °F 94% 29.85 in 10.0 mi Calm Calm - N/A   Clear
1:58 AM 80.1 °F 85.8 °F 77.0 °F 90% 29.85 in 7.0 mi Calm Calm - N/A   Partly Cloudy
2:58 AM 79.0 °F - 77.0 °F 94% 29.84 in 6.0 mi Calm Calm - N/A   Clear
5:58 AM 78.1 °F - 75.9 °F 93% 29.82 in 6.0 mi South 3.5 mph - N/A   Clear
6:58 AM 77.0 °F - 75.0 °F 94% 29.83 in 7.0 mi Calm Calm - N/A   Partly Cloudy
7:58 AM 78.1 °F - 75.9 °F 93% 29.85 in 5.0 mi Calm Calm - N/A   Clear
9:58 AM 86.0 °F 98.3 °F 78.1 °F 77% 29.88 in 10.0 mi WSW 4.6 mph - N/A   Scattered Clouds
10:58 AM 90.0 °F 102.5 °F 77.0 °F 65% 29.88 in 10.0 mi Variable 3.5 mph - N/A   Partly Cloudy
11:58 AM 91.9 °F 103.2 °F 75.0 °F 58% 29.88 in 10.0 mi Variable 3.5 mph - N/A   Scattered Clouds
12:58 PM 91.9 °F 101.3 °F 73.9 °F 55% 29.87 in 10.0 mi Calm Calm - N/A   Mostly Cloudy
1:58 PM 96.1 °F 102.9 °F 70.0 °F 43% 29.84 in 10.0 mi Variable 3.5 mph - N/A   Clear
2:58 PM 98.1 °F 105.0 °F 70.0 °F 40% 29.83 in 10.0 mi Variable 3.5 mph - N/A   Partly Cloudy
3:58 PM 98.1 °F 105.0 °F 70.0 °F 40% 29.81 in 10.0 mi Calm Calm - N/A   Clear
4:58 PM 91.0 °F 101.6 °F 75.0 °F 59% 29.82 in 10.0 mi South 9.2 mph - N/A   Clear
5:58 PM 90.0 °F 95.4 °F 70.0 °F 52% 29.83 in 10.0 mi SSE 9.2 mph - N/A   Clear
6:58 PM 84.9 °F 92.1 °F 73.9 °F 69% 29.84 in 10.0 mi South 8.1 mph - N/A   Clear
7:32 PM 84.9 °F 93.3 °F 75.0 °F 72% 29.96 in 10.0 mi SSE 11.5 mph - N/A   Mostly Cloudy
7:58 PM 82.0 °F 88.6 °F 75.0 °F 79% 29.84 in 10.0 mi SSE 6.9 mph - N/A   Partly Cloudy
8:58 PM 80.1 °F 84.2 °F 73.0 °F 79% 29.86 in 10.0 mi SSE 6.9 mph - N/A   Clear
9:58 PM 78.1 °F - 73.0 °F 84% 29.86 in 10.0 mi Calm Calm - N/A   Clear